Simultaneous Nadir Overpasses (SNOs) Predictions

Prediction of SNOs between METOP-A and TERRA Satellite Orbit:

Table of predicted SNOs for the next 14.0 days since TLE Epoch: 4/21/2018
Index Date (METOP-A) Time (METOP-A) Lat,Lon (METOP-A) SZA (METOP-A ) Date (TERRA) Time (TERRA) Lat,Lon (TERRA) SZA (TERRA ) Distance(km) Time Diff (sec)
1 04/22/2018 12:15:17 81.41, 45.86 72.27 04/22/2018 12:15:21 81.42, 45.70 72.26 2.79 4
2 04/22/2018 13:05:58 -81.41,-146.78 107.74 04/22/2018 13:04:48 -81.41,-146.80 107.78 0.31 70
3 04/25/2018 07:49:35 81.41, 111.89 71.32 04/25/2018 07:49:38 81.41, 112.05 71.34 2.73 3
4 04/25/2018 08:40:15 -81.41, -80.33 108.65 04/25/2018 08:39:05 -81.41, -80.43 108.70 1.76 70
5 04/28/2018 03:23:53 81.41, 178.30 70.43 04/28/2018 03:23:56 81.41, 178.34 70.44 0.79 3
6 04/28/2018 04:14:33 -81.41, -13.89 109.53 04/28/2018 04:13:22 -81.42, -13.74 109.54 2.76 71
7 04/30/2018 22:58:10 81.41,-114.90 69.62 04/30/2018 22:58:13 81.42,-115.04 69.61 2.35 3
8 04/30/2018 23:48:51 -81.41, 52.53 110.38 04/30/2018 23:47:40 -81.41, 52.51 110.42 0.31 71
9 05/03/2018 17:42:13 -81.25, 133.90 112.44 05/03/2018 17:43:22 -81.00, 136.71 112.29 55.74 69
10 05/03/2018 18:32:28 81.41, -48.91 68.75 05/03/2018 18:32:30 81.40, -48.87 68.75 1.00 2




NCC Satellite Simultaneous Nadir Overpasses (SNOs) Prediction Service
